Location: Aurora Center
(43.5271°N, 98.5894°W)
Time: 00:18:02
(UTC-05:00)

YUBILEINY - Pass Details

Date: 13 August 2024
Orbit: 1478 x 1508 km, 82.5° (Epoch: 15 September)

Event Time Altitude Azimuth Distance (km) Brightness Sun altitude
Rises 05:59:25 0° 131° (SE) 4,593 ? -7.1°
Reaches altitude 10° 06:03:29 10° 114° (ESE) 3,622 ? -6.5°
Maximum altitude 06:08:42 18° 76° (ENE) 3,058 ? -5.6°
Drops below altitude 10° 06:13:57 10° 38° (NE) 3,646 ? -4.8°
Sets 06:18:01 0° 21° (NNE) 4,636 ? -4.1°
